This is the latest recevied weather packets stored in our database for station/object JR4VEV-13. If no packets are shown the sender has not sent any weather packets the latest 10 day(s).
| Time | Temp. | Humidity | Pressure | Rain* | Wind** | Luminosity | Snow |
|---|---|---|---|---|---|---|---|
| 1777442579 | 20.56° C | 50% | 1015.6 hPa | 0 mm | - | - | - |
| 1777441979 | 20° C | 51% | 1015.6 hPa | 0 mm | - | - | - |
| 1777441378 | 20° C | 51% | 1015.7 hPa | 0 mm | - | - | - |
| 1777440779 | 19.44° C | 52% | 1015.8 hPa | 0 mm | - | - | - |
| 1777440178 | 19.44° C | 54% | 1015.9 hPa | 0 mm | - | - | - |
| 1777439578 | 18.89° C | 55% | 1016.2 hPa | 0 mm | - | - | - |
| 1777438978 | 18.89° C | 55% | 1016.1 hPa | 0 mm | - | - | - |
| 1777438380 | 18.89° C | 56% | 1016.3 hPa | 0 mm | - | - | - |
| 1777437780 | 18.89° C | 56% | 1016.4 hPa | 0 mm | - | - | - |
| 1777437178 | 18.33° C | 56% | 1016.5 hPa | 0 mm | - | - | - |
| 1777436579 | 18.33° C | 57% | 1016.2 hPa | 0 mm | - | - | - |
| 1777435979 | 18.33° C | 59% | 1016.5 hPa | 0 mm | - | - | - |
| 1777435379 | 18.33° C | 59% | 1016.4 hPa | 0 mm | - | - | - |
| 1777434778 | 18.33° C | 57% | 1016.5 hPa | 0 mm | - | - | - |
| 1777434178 | 18.33° C | 60% | 1016.5 hPa | 0 mm | - | - | - |
| 1777433578 | 18.33° C | 61% | 1016.4 hPa | 0 mm | - | - | - |
| 1777432979 | 18.33° C | 60% | 1016.3 hPa | 0 mm | - | - | - |
| 1777432379 | 18.33° C | 60% | 1016.4 hPa | 0 mm | - | - | - |
| 1777431779 | 18.33° C | 59% | 1016.6 hPa | 0 mm | - | - | - |
| 1777431179 | 18.33° C | 60% | 1016.7 hPa | 0 mm | - | - | - |
| 1777430580 | 18.33° C | 59% | 1016.5 hPa | 0 mm | - | - | - |
| 1777429980 | 18.89° C | 59% | 1016.5 hPa | 0 mm | - | - | - |
| 1777429379 | 18.89° C | 59% | 1016.6 hPa | 0 mm | - | - | - |
| 1777428779 | 18.89° C | 58% | 1016.6 hPa | 0 mm | - | - | - |
| 1777428179 | 19.44° C | 58% | 1016.7 hPa | 0 mm | - | - | - |
* Rain latest hour (hover to see other rain measurements)
** Current wind speed in m/s (hover to see current wind gust speed)